User: anonymous   Login
Location: NJAA Observatory
(40.6819°N, 74.8979°W)
Time: 04:56:21
(UTC-05:00)
Language:

Cosmos 1461 - Orbit

View from above orbital plane
View from above orbital plane
View from above satellite
View from above satellite

Ground track
Ground track

The orbit data is extracted from the following two-line orbital elements,

1 14064U 83044A   16344.88705543 +.00000820 +00000-0 +87444-4 0  9993
2 14064 065.0000 150.3578 0087849 126.4998 234.4251 14.93370771695083
Epoch (UTC): 09 December 2016 21:17:21
Eccentricity: 0.0087849
inclination: 65.0000°
perigee height: 526 km
apogee height: 648 km
right ascension of ascending node: 150.3578°
argument of perigee: 126.4998°
revolutions per day: 14.93370771
mean anomaly at epoch: 234.4251°
orbit number at epoch: 69508

The dashed part of the orbit path shows where the satellite is in the earth's shadow,  

DLR